Whiteman AFB, MO

11:33 AM CDT on April 24, 2018 (GMT -0500)
Whiteman Air Force Base

Weather History for KSZL - May, 2012

Change the Weather History Date:

Tuesday, May 1, 2012

  Actual Average Record
Temperature  
Mean Temperature 70 °F -  
Max Temperature 80 °F 69 °F 83 °F (2013)
Min Temperature 60 °F 50 °F 39 °F (1997)
Cooling Degree Days 4    
Growing Degree Days 20 (Base 50)    
Moisture  
Dew Point 65 °F    
Average Humidity 93    
Maximum Humidity 100    
Minimum Humidity 73    
Precipitation  
Precipitation 0.48 in - - ()
Sea Level Pressure  
Sea Level Pressure 29.80 in    
Wind  
Wind Speed 7 mph (SSW)    
Max Wind Speed 21 mph    
Max Gust Speed 31 mph    
Visibility 8 miles    
Events Rain , Thunderstorm    
Averages and records for this station are not official NWS values.
T = Trace of Precipitation, MM = Missing Value Source: NWS Daily Summary

Daily Weather History Graph

Daily Weather History Graph

Search for Another Location

Airport or City:

Astronomy

May. 01, 2012 Rise Set
Actual Time 6:16 AM CDT 8:06 PM CDT
Civil Twilight 5:47 AM CDT 8:35 PM CDT
Nautical Twilight 5:12 AM CDT 9:10 PM CDT
Astronomical Twilight 4:35 AM CDT 9:48 PM CDT
Moon 3:14 PM CDT (5/1) 3:10 AM CDT (5/1)
Length of Visible Light 14h 48m
Length of Day
13h 50m
Waxing Gibbous, 74% of the Moon is Illuminated
May 1
Waxing Gibbous
May 5
Full
May 12
Last Quarter
May 20
New
May 28
First Quarter

Hourly Weather History & Observations

Time (CDT) Temp. Dew Point Humidity Pressure Visibility Wind Dir Wind Speed Gust Speed Precip Events Conditions
12:55 AM 60.3 °F 60.3 °F 100% 29.91 in 10.0 mi East 3.5 mph - N/A   Mostly Cloudy
1:55 AM 60.4 °F 60.3 °F 99% 29.87 in 10.0 mi East 6.9 mph - 0.00 in Rain , Thunderstorm Light Rain Showers
2:13 AM 60.8 °F 60.8 °F 100% 29.88 in 5.0 mi Variable 5.8 mph - N/A Rain , Thunderstorm Light Thunderstorms and Rain
2:55 AM 60.6 °F 60.6 °F 100% 29.88 in 6.0 mi Calm Calm - 0.05 in Rain , Thunderstorm Light Thunderstorms and Rain
3:04 AM 60.8 °F 60.8 °F 100% 29.88 in 5.0 mi SSE 4.6 mph - N/A Rain , Thunderstorm Thunderstorms and Rain
3:55 AM 61.5 °F 61.5 °F 100% 29.84 in 5.0 mi East 4.6 mph - 0.24 in Rain , Thunderstorm Thunderstorms and Rain
4:55 AM 61.3 °F 61.3 °F 100% 29.81 in 4.0 mi North 3.5 mph - 0.16 in Rain Rain
5:15 AM 60.8 °F 60.8 °F 100% 29.77 in 5.0 mi ENE 4.6 mph - N/A   Mostly Cloudy
5:30 AM 60.8 °F 60.8 °F 100% 29.76 in 7.0 mi East 5.8 mph - N/A   Mostly Cloudy
5:55 AM 60.8 °F 60.8 °F 100% 29.76 in 6.0 mi ESE 11.5 mph - 0.02 in   Scattered Clouds
6:43 AM 60.8 °F 60.8 °F 100% 29.82 in 5.0 mi West 5.8 mph - N/A   Mostly Cloudy
6:55 AM 61.3 °F 61.3 °F 100% 29.82 in 5.0 mi WNW 6.9 mph - N/A   Mostly Cloudy
6:57 AM 60.8 °F 60.8 °F 100% 29.82 in 5.0 mi WNW 8.1 mph - N/A   Overcast
7:01 AM 60.8 °F 60.8 °F 100% 29.82 in 6.0 mi NW 5.8 mph - N/A Rain Light Rain
7:19 AM 60.8 °F 60.8 °F 100% 29.83 in 5.0 mi WSW 3.5 mph - N/A Rain Light Rain
7:36 AM 62.6 °F 62.6 °F 100% 29.82 in 7.0 mi SW 5.8 mph - N/A   Mostly Cloudy
7:55 AM 62.1 °F 62.1 °F 100% 29.81 in 10.0 mi SW 8.1 mph - 0.01 in   Mostly Cloudy
8:07 AM 62.6 °F 62.6 °F 100% 29.81 in 10.0 mi SW 5.8 mph - N/A   Mostly Cloudy
8:13 AM 62.6 °F 62.6 °F 100% 29.81 in 10.0 mi SW 8.1 mph - N/A   Mostly Cloudy
8:55 AM 63.1 °F 63.1 °F 100% 29.83 in 10.0 mi SW 11.5 mph - N/A   Mostly Cloudy
9:18 AM 64.4 °F 64.4 °F 100% 29.82 in 10.0 mi WSW 6.9 mph - N/A   Scattered Clouds
9:32 AM 66.2 °F 66.2 °F 100% 29.83 in 10.0 mi SW 8.1 mph - N/A   Mostly Cloudy
9:55 AM 67.3 °F 67.1 °F 99% 29.83 in 10.0 mi SSW 9.2 mph - N/A   Mostly Cloudy
10:55 AM 70.7 °F 66.0 °F 85% 29.82 in 10.0 mi SW 16.1 mph 20.7 mph N/A   Scattered Clouds
11:55 AM 75.0 °F 65.8 °F 73% 29.82 in 10.0 mi SW 19.6 mph 31.1 mph N/A   Scattered Clouds
12:55 PM 72.7 °F 67.5 °F 84% 29.79 in 10.0 mi South 16.1 mph - N/A   Mostly Cloudy
1:55 PM 75.4 °F 69.8 °F 83% 29.78 in 10.0 mi SSW 15.0 mph - N/A   Scattered Clouds
2:55 PM 78.4 °F 71.2 °F 78% 29.77 in 10.0 mi South 15.0 mph - N/A   Scattered Clouds
3:55 PM 79.9 °F 71.8 °F 76% 29.75 in 10.0 mi South 13.8 mph - N/A   Scattered Clouds
4:55 PM 78.8 °F 71.6 °F 78% 29.74 in 10.0 mi South 15.0 mph - N/A   Scattered Clouds
5:55 PM 78.8 °F 70.2 °F 75% 29.73 in 10.0 mi South 20.7 mph - N/A   Mostly Cloudy
6:55 PM 77.9 °F 70.5 °F 78% 29.72 in 10.0 mi South 13.8 mph - N/A   Clear
7:55 PM 75.2 °F 71.1 °F 87% 29.73 in 10.0 mi South 8.1 mph - N/A   Clear
8:55 PM 74.1 °F 70.5 °F 88% 29.74 in 10.0 mi South 10.4 mph - N/A   Clear
9:55 PM 72.7 °F 69.1 °F 88% 29.75 in 10.0 mi South 12.7 mph - N/A   Clear
10:55 PM 71.8 °F 67.5 °F 86% 29.74 in 10.0 mi South 11.5 mph - N/A   Clear
11:55 PM 71.4 °F 66.7 °F 85% 29.73 in 10.0 mi South 17.3 mph 24.2 mph N/A   Clear